STARLINK-34600, 64699

Orbit data source: Space-Track

STARLINK-34600, 64699 is a payload satellite owned by SpaceX/Seattle (US) in LEO that was launched on Sat, 28 Jun 2025 UTC via an FALCON 9 launch vehicle from the Air Force Western Test Range (AFWTR). Payload-class satellites include a variety of spacecraft equipped with specific instruments for various scientific and technological missions. These include communications satellites like Starlink; space stations such as the ISS; scientific satellites like the Hubble; Earth observation satellites from companies like Planet Labs, Umbra, and HawkEye 360; GPS; miniature CubeSats for education and research; and military/defense satellites.

Not visible in the next 10 days
Identifier
64699, 2025-142D
Orbit
LEO
Last TLE update
9 hours ago
Origin
Manufacturer
SpaceX/Seattle
Mission
Operational spacecraft
Bus & Motor
STARLINK V2MO, Unknown motor
Mass
575 kg wet, ~530 kg dry
Launch date (UTC)
2025-06-28 (1 week ago)
Launch vehicle
FALCON 9
Launch site
Air Force Western Test Range (AFWTR)
Object type
Payload
Rocket body
Debris
Shape & HBR
Unknown
Radar Cross Section
RCS unknown

Expand to show TLE details & history

TLE from 9 hours ago
0 STARLINK-34600
1 64699U 25142D   25186.91668981 -.01081837  00000-0 -46541-2 0  9990
2 64699  69.9952 230.3831 0003726 274.4919 149.2691 15.87250687  2182
Epoch: 2025-07-05T22:00Z
TLE epoch observation values (Epoch: 2025-07-05T22:00:01.999Z)
Latitude
57.5789°
Longitude
10.97541°
Altitude
321.221 km
Speed
7.72 km/s
True Right ascension
17h 40m 31s
True Declination
57° 24' 46"
Sunlit
Object was in daylight at epoch
Visualization orbit readout
Latitude
-51.29372°
Longitude
-51.65971°
Altitude
329.7 km
Speed
7.711 km/s
Apparent Right ascension
09h 38m 27s
Apparent Declination
-58° 53' 49"
Sunlit
Object is in full shadow
Visualization observer readout
Local Sidereal Time
18:32:02
Azimuth
221.185° SW
Elevation
-55.248°
Doppler factor
1
Orbital elements
Apogee altitude
310.354 km
Perigee altitude
305.372 km
Semi-major axis
6,686 km
Eccentricity
0.00037
Inclination
69.9952°
RAAN
230.3831°
Arg. of periapsis
274.4919°
True anomaly
Unknown
Mean anomaly
149.2691°
Eccentric anomaly
Unknown
Mean motion
3.97003 °/min
Orbital period
90.68 mins
BSTAR
-0.0046541
Loading maneuver chart data...
Loading SW <> Apogee altitude chart data...
Loading historical data...
Loading historical data...
Loading historical data...
Loading historical data...
Loading historical data...
Loading historical data...
Loading historical data...

STARLINK-34600 Visibility

Observer location: undefined°, undefined°

STARLINK-34600 is likely not visible in the next few days
Span
Click to sort rows by Start time (UTC) header in descending order
Start Az.
Max El. time (UTC)
Max El. Az.
Max El.
End time (UTC)
End Az.
|